Location: Stara Lesna
(49.1528°N, 20.2911°E)
Time: 09:58:51
(UTC+02:00)

Cosmos 220 Rocket - Pass Details

Date: 13 July 2020
Orbit: 575 x 616 km, 74.0° (Epoch: 05 August)

Event Time Altitude Azimuth Distance (km) Brightness Sun altitude
Rises 02:44:30 0° 332° (NNW) 2,829 7.9 -14.2°
Reaches altitude 10° 02:46:47 10° 327° (NNW) 1,918 7.0 -14.0°
Maximum altitude 02:50:55 50° 253° (WSW) 746 4.2 -13.7°
Enters shadow 02:53:45 19° 184° (S) 1,420 5.4 -13.5°
